UAE221 OMDB-KDFW

Flight info

Callsign UAE221
Flight time N/A
Altitude 29000
Route ANVIX7F ANVIX L223 TARDI N629 IVAKU G216 ALPOR DCT PI B505 PG G325 PS P500 ATROL/N0501F300 P500 GERRY/N0503F290 P500 MOTMO/N0501F300 P500 FIRUZ/K0924F300 Z407 POMIR/K0920F310 L142 OSH M34 OGLAB/K0917F300 N170 LUKUS W333 NEMKU/K0907F320 N170 ARNIR Z553 POBUR/K0911F310 M75 DAKIN N990 ML/K0900F320 N990 IRGON/K0895F340 N990 ANODI L165 ABERI/N0482F340 DCT 85N099W DCT 80N107W DCT 75N109W/N0486F350 DCT 70N110W DCT 65N105W DCT 60N105W/N0476F370 DCT KENRU Q906 OTLUR/N0485F380 DCT KP06C DCT ONL/N0486F370 DCT OBH DCT KIRKE/N0479F380 DCT HOFFF JOVEM6
Aircraft B77L/H-SDE1E2E3FGHIJ2J3J4J5M1RWXY/LB1D1

Departure

Time 2026-04-30 13:22
Airport Dubai International Airport (OMDB)

Arrival

Time N/A
Airport Dallas Fort Worth International Airport (KDFW)
Time Latitude Longitude Altitude Speed Heading
2026-04-30 12:42 25.24803 55.36439 25 ft 0 kts 211°
2026-04-30 13:08 25.24816 55.36448 17 ft 4 kts 211°
2026-04-30 13:08 25.24839 55.36463 44 ft 4 kts 211°
2026-04-30 13:08 25.24858 55.36476 31 ft 4 kts 200°
2026-04-30 13:08 25.24883 55.36478 31 ft 4 kts 155°
2026-04-30 13:09 25.24903 55.36461 31 ft 4 kts 125°
2026-04-30 13:09 25.24917 55.36437 31 ft 4 kts 122°
2026-04-30 13:09 25.24923 55.36426 31 ft 0 kts 122°
2026-04-30 13:15 25.24908 55.36453 30 ft 9 kts 122°
2026-04-30 13:15 25.24836 55.36581 30 ft 11 kts 122°
2026-04-30 13:15 25.24802 55.36655 29 ft 11 kts 114°
2026-04-30 13:16 25.24779 55.36734 28 ft 11 kts 102°
2026-04-30 13:16 25.24764 55.36816 30 ft 11 kts 108°
2026-04-30 13:16 25.24738 55.36893 29 ft 11 kts 93°
2026-04-30 13:17 25.24841 55.37003 27 ft 11 kts 30°
2026-04-30 13:17 25.24906 55.37047 29 ft 11 kts 32°
2026-04-30 13:17 25.25059 55.37151 27 ft 5 kts 40°
2026-04-30 13:18 25.25065 55.37185 27 ft 5 kts 102°
2026-04-30 13:18 25.25009 55.37299 28 ft 14 kts 123°
2026-04-30 13:18 25.24949 55.37406 28 ft 17 kts 121°
2026-04-30 13:19 25.24887 55.37517 27 ft 17 kts 121°
2026-04-30 13:19 25.24825 55.37628 27 ft 17 kts 121°
2026-04-30 13:19 25.24763 55.37738 27 ft 17 kts 123°
2026-04-30 13:19 25.24699 55.37850 25 ft 17 kts 122°
2026-04-30 13:20 25.24659 55.37932 27 ft 6 kts 94°
2026-04-30 13:20 25.24694 55.37975 27 ft 14 kts 32°
2026-04-30 13:20 25.24781 55.38032 29 ft 6 kts 30°
2026-04-30 13:20 25.24807 55.38028 29 ft 4 kts 330°
2026-04-30 13:21 25.24823 55.38003 29 ft 5 kts 301°
2026-04-30 13:21 25.24838 55.37973 29 ft 0 kts 298°
2026-04-30 13:21 25.24839 55.37971 29 ft 5 kts 298°
2026-04-30 13:22 25.25385 55.36982 30 ft 146 kts 301°
2026-04-30 13:22 25.26021 55.35830 38 ft 199 kts 300°
2026-04-30 13:22 25.27463 55.33292 1161 ft 196 kts 301°
2026-04-30 13:23 25.28206 55.31972 1461 ft 212 kts 301°
2026-04-30 13:23 25.29164 55.29102 2443 ft 208 kts 268°
2026-04-30 13:24 25.28091 55.25982 2946 ft 228 kts 249°
2026-04-30 13:24 25.26731 55.22796 3826 ft 229 kts 248°
2026-04-30 13:25 25.25363 55.19591 4707 ft 231 kts 248°
2026-04-30 13:25 25.23311 55.16911 5269 ft 249 kts 199°
2026-04-30 13:26 25.17988 55.18101 5777 ft 287 kts 140°
2026-04-30 13:26 25.16692 55.22127 6547 ft 290 kts 83°
2026-04-30 13:27 25.17353 55.26581 7384 ft 296 kts 71°
2026-04-30 13:28 25.16595 55.32978 8355 ft 300 kts 124°
2026-04-30 13:28 25.14140 55.36752 9171 ft 309 kts 133°
2026-04-30 13:28 25.12706 55.38533 9619 ft 312 kts 137°
2026-04-30 13:29 25.09508 55.41816 10485 ft 316 kts 145°
2026-04-30 13:29 25.06028 55.44746 11335 ft 321 kts 138°
2026-04-30 13:30 25.04985 55.52264 11584 ft 375 kts 71°
2026-04-30 13:31 25.05615 55.58019 11729 ft 395 kts 109°
2026-04-30 13:31 24.99759 55.63947 12707 ft 399 kts 151°
2026-04-30 13:32 24.95356 55.67834 13642 ft 409 kts 138°
2026-04-30 13:32 24.92059 55.72903 14328 ft 411 kts 121°
2026-04-30 13:33 24.89331 55.78513 15147 ft 413 kts 123°